Location: Newark
(48.5156°N, 1.8989°W)
Time: 18:38:12
(UTC+00:00)

Transit 4A - Pass Details

Date: 01 December 2019
Orbit: 870 x 975 km, 66.8° (Epoch: 08 December)

Event Time Altitude Azimuth Distance (km) Brightness Sun altitude
Exits shadow 05:31:06 17° 224° (SW) 2,069 9.4 -20.2°
Drops below altitude 10° 05:33:02 10° 207° (SSW) 2,510 10.0 -19.9°
Sets 05:36:04 0° 192° (SSW) 3,443 10.9 -19.4°
